Weather WX

World > North America > United States > Minnesota

Fifty Lakes, Minnesota Regional Weather

Lat: 46.75N, Lon: 94.1W
Wx Zone: MNZ034
Warning FLW WEATHER ALERT - (More Info. Click Here) Warning
Feedback

Fifty Lakes, MN Regional Weather

Expires:201906250200;;028613
ASUS43 KMPX 250110
RWRMN 
WEATHER ROUNDUP FOR MINNESOTA
NATIONAL WEATHER SERVICE TWIN CITIES/CHANHASSEN MN
800 PM CDT MON JUN 24 2019


NOTE: "FAIR" INDICATES FEW OR NO CLOUDS BELOW 12,000 FEET WITH NO
SIGNIFICANT WEATHER AND/OR OBSTRUCTIONS TO VISIBILITY. N/A MEANS
CURRENT SKY AND/OR WEATHER CONDITIONS ARE NOT AVAILABLE.


MNZ033>034-036-042>043-049>051-058-059-250200-
   Central Minnesota     
  
CITY           SKY/WX    TMP DP  RH WIND       PRES   REMARKS
ST CLOUD       FAIR      65  60  84 S5        29.64R                  
SAUK CENTRE    FAIR      71  56  58 W6        29.65R                  
PAYNESVILLE    FAIR      72  60  67 NW5       29.65S                  
AITKIN         FAIR      61  57  88 CALM      29.61S                  
PINE RIVER     FAIR      64  55  72 CALM      29.66S                  
BRAINERD       FAIR      69  61  75 S5        29.62S                  
STAPLES        FAIR      70  55  60 W3        29.63S                  
LONG PRAIRIE   FAIR      70  57  64 W3        29.65R                  
LITTLE FALLS   FAIR      66  63  88 S3        29.64R                  
LITCHFIELD     FAIR      75  57  53 W3        29.66R                  
BUFFALO        FAIR      65  60  81 MISG      29.66R                  
MAPLE LAKE       N/A     65  63  91 CALM      29.66R                  
HUTCHINSON     PTCLDY    74  61  65 SW5       29.66S                  
$$

SKY/WX - Weather  TMP - Temperature  DP - Dew Point  RH - Relative Humidity
WIND - Wind Direction/Speed PRES - Barometric Pressure VSB - Visibility
WCI - Wind Chill Index E13G22 Wind - East Wind 13 mph/Gusts of 22 mph